TIME,DELAY(SENSOR),PRES,T(CTD),SAL,OXYGEN,RAWTEMP,T(OPTODE),TCPHASE,FLUOR,BETA(BETA700),BETA(BETA412),BETA(BETA440),CDOM,C(CSC),ED(ED411.90),ED(ED443.80),ED(ED489.40),ED(ED554.70),LU(LU412.20),LU(LU443.80),LU(LU489.40),LU(LU555.00),COMP,TILTX,TILTX(TILTY),CHECK
1344870820,5804,497.2099914550781000,17.3104991912841800,36.4339981079101560,232.9615020751953000,192.3932037353515600,17.3130798339843750,31.9116897583007800,50,106,99,83,67,15592,2147481609,2147767597,2147558802,2147795766,2147311286,2147478985,2147708726,2148245330,1784,7,13,12540
1344870937,5803,486.6199951171875000,17.3409996032714840,36.4385986328125000,231.9532012939453000,191.4309997558593800,17.3423500061035160,31.9479103088378900,50,108,98,82,66,15591,2147482953,2147767067,2147559003,2147794907,2147315465,2147475410,2147712923,2148246125,3204,7,13,62424
1344871064,5805,475.2799987792969000,17.4298992156982420,36.4543991088867200,232.3704071044922000,188.4468994140625000,17.4331398010253900,31.8868598937988280,49,105,98,84,67,15592,2147485019,2147766436,2147559341,2147796534,2147315574,2147478381,2147706852,2148246893,182,7,13,21240
1344871191,5806,464.0100097656250000,17.5011005401611330,36.4670982360839840,233.4432067871093800,186.2205047607422000,17.5008907318115230,31.8041591644287100,50,107,97,84,67,15593,2147480987,2147768521,2147558573,2147796982,2147313746,2147484105,2147708918,2148246308,995,7,13,10828
1344871308,5803,453.8299865722656000,17.6012001037597660,36.4855995178222660,233.7707061767578000,183.0023040771484400,17.5988197326660160,31.7445392608642580,49,107,96,84,66,15591,2147482002,2147770633,2147559972,2147792612,2147314541,2147474806,2147708461,2148242715,1134,7,13,17323
1344871435,5802,442.8399963378906000,17.6833992004394530,36.5009994506835940,234.7138061523437500,180.3253021240234400,17.6802902221679700,31.6624794006347660,50,107,98,82,67,15589,2147481197,2147769088,2147558601,2147791716,2147302445,2147475081,2147708589,2148243446,1949,7,13,8335
1344871564,5802,431.7300109863281000,17.7499008178710940,36.5138015747070300,235.7362060546875000,178.1354980468750000,17.7469406127929700,31.5833396911621100,50,106,98,85,66,15593,2147485641,2147768274,2147559734,2147794441,2147310409,2147479634,2147709238,2148243611,2950,7,13,7657
1344871691,5804,420.7600097656250000,17.8024997711181640,36.5238990783691400,236.6369934082031200,176.2816009521484400,17.8033790588378900,31.5152797698974600,49,107,98,84,66,15593,2147485650,2147767542,2147558034,2147792502,2147311579,2147476489,2147703734,2148241691,3518,7,12,45025
1344871818,5806,409.7000122070312500,17.8696002960205080,36.5345001220703100,237.1318054199218800,174.2178955078125000,17.8662109375000000,31.4636898040771500,50,107,98,82,66,15588,2147484379,2147767488,2147559542,2147793892,2147312393,2147479460,2147708297,2148242368,302,7,13,41687
1344871947,5802,398.3800048828125000,17.9202003479003900,36.5443992614746100,237.8659057617187500,172.5946960449218800,17.9156208038330080,31.4070701599121100,50,107,99,84,66,15592,2147483702,2147765760,2147558061,2147792036,2147311890,2147480384,2147706669,2148241115,1032,7,13,6154
1344872074,5805,387.3500061035156000,17.9671993255615230,36.5516014099121100,238.0868988037109400,170.9963989257812500,17.9642906188964840,31.3750400543212900,50,105,99,84,66,15593,2147483821,2147768338,2147559350,2147793353,2147309851,2147476361,2147711158,2148245165,1754,7,13,59826
1344872203,5804,375.9100036621094000,18.0196990966796880,36.5600013732910160,238.3511047363281200,169.2702026367187500,18.0168495178222660,31.3393192291259770,50,107,99,84,66,15592,2147481819,2147765851,2147562934,2147792192,2147299885,2147478043,2147708434,2148239140,2789,7,13,10451
1344872318,5802,365.7099914550781000,18.0580005645751950,36.5643997192382800,238.0812072753906200,168.0099945068359400,18.0552291870117200,31.3352394104003900,50,107,98,83,66,15592,2147483556,2147765650,2147562523,2147792768,2147314962,2147482194,2147705088,2148244416,3401,7,13,16839
1344872445,5803,354.6700134277344000,18.1110992431640620,36.5708007812500000,237.6047058105468800,166.2510986328125000,18.1088008880615230,31.3343391418457030,50,107,99,84,66,15591,2147484772,2147770642,2147562806,2147790793,2147312347,2147478966,2147708562,2148241042,488,7,12,19663
1344872574,5805,343.8599853515625000,18.1618995666503900,36.5764007568359400,236.6414031982422000,164.5935974121093800,18.1592807769775400,31.3579502105712900,49,108,99,84,67,15589,2147482569,2147766153,2147562358,2147795072,2147312594,2147479012,2147708443,2148243867,1592,7,13,56854
1344872713,5804,332.3900146484375000,18.1996002197265620,36.5778007507324200,236.0238952636718800,163.3816986083984400,18.1961994171142580,31.3710594177246100,50,110,99,83,67,15587,2147482020,2147765138,2147561005,2147793142,2147320036,2147480338,2147707812,2148238857,2703,7,12,4433
1344872842,5802,321.9400024414062500,18.2527999877929700,36.5815010070800800,234.7292022705078000,161.5583038330078000,18.2517509460449220,31.4086494445800780,50,110,100,84,66,15584,2147485504,2147766729,2147564388,2147791808,2147307291,2147479561,2147708864,2148241618,3475,8,12,49371
1344872993,5806,310.2000122070312500,18.3290004730224600,36.5882987976074200,233.4037017822265600,159.0166931152343800,18.3291797637939450,31.4383907318115230,50,108,98,86,67,15582,2147488704,2147773065,2147576768,2147789467,2147313024,2147476772,2147715904,2148241645,567,7,12,24297
1344873141,5802,298.3699951171875000,18.4195003509521500,36.5999984741210940,232.8213958740234400,156.0151977539062500,18.4206409454345700,31.4263801574707030,50,111,98,84,66,15582,2147483794,2147768292,2147572379,2147791744,2147309750,2147480274,2147713444,2148240164,1280,8,12,3596
1344873254,5801,287.3900146484375000,18.5067005157470700,36.6063003540039060,230.9886932373047000,153.1894073486328000,18.5067691802978500,31.4776191711425780,50,110,99,83,65,15580,2147491565,2147771273,2147576329,2147789686,2147305965,2147482989,2147714496,2148240658,1541,7,12,34085
1344873369,5802,275.6300048828125000,18.5849990844726560,36.6068992614746100,229.2864074707031200,150.5355072021484400,18.5876598358154300,31.5256004333496100,50,110,98,84,68,15582,2147488283,2147782070,2147612269,2147791387,2147310665,2147489682,2147733686,2148240448,2244,8,12,14720
1344873474,5803,264.7099914550781000,18.7045993804931640,36.6133995056152340,228.0792999267578000,146.6484985351562500,18.7061805725097660,31.5333194732666000,50,110,99,85,67,15578,2147488146,2147787081,2147622025,2147790985,2147313142,2147491629,2147738422,2148243373,3081,8,12,391
1344873577,5805,253.8899993896484400,18.8314990997314450,36.6169013977050800,227.3856048583984400,142.7223968505859400,18.8259105682373050,31.5151100158691400,50,111,98,84,66,15579,2147489536,2147780845,2147596306,2147789613,2147306587,2147490349,2147724178,2148239460,554,7,12,24611
1344873680,5804,243.1199951171875000,18.9216995239257800,36.6152000427246100,228.6416015625000000,139.6105957031250000,18.9208393096923830,31.4111194610595700,50,111,99,84,67,15581,2147486646,2147779264,2147603328,2147791058,2147297408,2147492105,2147730678,2148241846,984,8,13,27996
1344873796,5804,232.7299957275390600,19.0457000732421880,36.6008987426757800,234.4346008300781200,135.7460021972656200,19.0387592315673830,31.0785102844238280,50,111,98,84,65,15580,2147491821,2147799689,2147644114,2147792201,2147304877,2147501421,2147751808,2148243876,1391,8,13,14205
1344873959,5802,222.0800018310547000,19.1359004974365230,36.5796012878418000,243.4723052978515600,132.6394958496093800,19.1335792541503900,30.6154308319091800,50,112,98,83,65,15584,2147494171,2147827309,2147718326,2147791762,2147308297,2147522706,2147795273,2148241974,1684,7,13,6697
1344874126,5804,210.4700012207031200,19.2716999053955080,36.5895996093750000,249.7702026367187500,128.1940002441406200,19.2693099975585940,30.2739791870117200,50,112,99,84,64,15581,2147500160,2147825773,2147708909,2147789065,2147312109,2147526747,2147791259,2148240941,1627,7,12,19395
1344874265,5801,199.3999938964843800,19.2994995117187500,36.5816993713378900,252.8354034423828000,127.3122024536132800,19.2962398529052730,30.1281108856201170,51,112,100,84,64,15576,2147521453,2148023021,2148186386,2147789750,2147323501,2147656749,2148072338,2148261979,2095,7,12,57540
1344874320,5804,195.0899963378906200,19.3082008361816400,36.5789985656738300,253.7472991943359400,127.0241012573242200,19.3050403594970700,30.0845909118652340,52,113,99,83,64,15578,2147526299,2148051940,2148267657,2147790144,2147324452,2147679122,2148121910,2148261293,2490,7,12,6379
1344874395,5803,189.6000061035156200,19.3227005004882800,36.5769004821777340,254.5213012695312500,126.5119018554687500,19.3206806182861330,30.0443401336669920,54,114,99,85,63,15577,2147530642,2148066678,2148278893,2147789165,2147327241,2147683739,2148120649,2148264137,3092,7,12,15597
1344874450,5803,185.8699951171875000,19.3271007537841800,36.5760002136230500,254.7819976806640600,126.3578033447265600,19.3253898620605470,30.0310592651367200,56,117,99,85,64,15574,2147503341,2147861229,2147768576,2147790016,2147307638,2147549312,2147826834,2148246930,3290,7,12,34843
1344874505,5803,182.1699981689453000,19.3313999176025400,36.5754013061523440,254.5675964355468800,126.2361984252929700,19.3290996551513670,30.0389804840087900,56,116,101,84,64,15572,2147526537,2147975835,2148039195,2147793444,2147319963,2147622262,2147985353,2148250267,3529,7,12,43210
1344874572,5803,177.6900024414062500,19.3435001373291000,36.5754013061523440,254.7185058593750000,125.8394012451171900,19.3412208557128900,30.0271606445312500,59,117,98,86,63,15567,2147555510,2148144758,2148452608,2147789988,2147343003,2147735844,2148206354,2148265828,150,7,12,52526
1344874627,5803,174.0000000000000000,19.3476009368896500,36.5746002197265600,254.8441925048828000,125.6806030273437500,19.3460693359375000,30.0197792053222660,60,120,100,86,64,15566,2147539510,2148037732,2148172233,2147793280,2147339913,2147670482,2148070070,2148258340,206,7,12,9656
1344874705,5803,169.2100067138672000,19.3728008270263670,36.5773010253906250,254.4096069335937500,124.8983001708984400,19.3699703216552730,30.0282897949218750,72,124,100,86,63,15551,2147535981,2147987382,2148031506,2147790509,2147324315,2147634688,2147984576,2148251712,299,7,12,55135
1344874772,5805,165.5700073242187500,19.3763999938964840,36.5744018554687500,254.0034942626953000,124.7421035766601600,19.3747406005859380,30.0438003540039060,77,126,102,86,63,15544,2147611264,2148376941,2148928621,2147794761,2147368155,2147861686,2148463131,2148283309,149,7,12,51606
1344874851,5803,161.2799987792968800,19.3789005279541000,36.5732002258300800,254.0838012695312500,124.6652984619140600,19.3770809173584000,30.0393600463867200,80,128,101,86,64,15539,2147606628,2148304493,2148715785,2147792329,2147365284,2147816384,2148343926,2148276297,182,7,12,50443
1344874918,5806,157.4600067138672000,19.3901996612548830,36.5732994079589840,253.8085021972656200,124.3018035888671900,19.3881893157959000,30.0465908050537100,82,131,101,86,64,15537,2147572086,2148116854,2148264704,2147790793,2147335506,2147697115,2148092050,2148261110,319,7,13,39666
1344874987,5803,153.5599975585937500,19.3932991027832030,36.5707015991210940,253.6697998046875000,124.1808013916015600,19.3918800354003900,30.0509796142578120,85,134,102,87,63,15526,2147603328,2148216219,2148425042,2147792594,2147359058,2147762989,2148192576,2148270482,399,7,12,9348
1344875066,5804,148.9100036621093800,19.4088001251220700,36.5722007751464840,253.4326934814453000,123.7276000976562500,19.4057292938232420,30.0557003021240230,92,132,102,87,64,15524,2147631341,2148298569,2148582281,2147792502,2147357805,2147792402,2148248786,2148269860,599,7,12,52673
1344875133,5804,144.9199981689453000,19.4169998168945300,36.5724983215332000,253.3699951171875000,123.4250030517578100,19.4149703979492200,30.0542106628417970,96,133,102,87,63,15519,2147754514,2148745362,2149454198,2147800365,2147423634,2148002066,2148644434,2148299172,689,7,12,63297
1344875200,5805,140.8300018310547000,19.4477996826171880,36.5747985839843750,253.4026031494140600,122.4576034545898400,19.4445304870605470,30.0403404235839840,106,135,100,87,64,15514,2148090441,2149934281,2151835702,2147812388,2147559817,2148606921,2149789750,2148378980,1042,7,12,61343
1344875267,5805,136.7799987792968800,19.4708995819091800,36.5763015747070300,253.8428955078125000,121.6399002075195300,19.4695091247558600,30.0105991363525400,110,134,101,87,64,15507,2148233216,2150328457,2152481920,2147820653,2147602733,2148747154,2150029595,2148398637,1446,7,12,60915
1344875324,5805,133.3300018310547000,19.4950008392334000,36.5772018432617200,254.3072967529297000,120.9182968139648400,19.4915599822998050,29.9812793731689450,115,135,102,88,64,15505,2148362358,2150663734,2153008731,2147828708,2147652873,2148856685,2150200868,2148413476,1574,7,12,8533
1344875391,5804,129.2799987792968800,19.5275993347167970,36.5787010192871100,255.2891998291015600,119.8158035278320300,19.5252494812011720,29.9247093200683600,124,132,102,87,65,15495,2148604781,2151282212,2153975277,2147839817,2147734491,2149066724,2150545718,2148440923,1930,7,12,59694
1344875458,5804,125.3000030517578100,19.5729007720947270,36.5829010009765600,256.9468078613281000,118.4336013793945300,19.5674896240234380,29.8360805511474600,128,129,102,89,66,15490,2148926006,2152069321,2155156260,2147854454,2147824457,2149324425,2150944658,2148477696,2272,7,13,34567
1344875525,5803,121.5599975585937500,19.6124992370605470,36.5819015502929700,258.8879089355469000,117.2975006103515600,19.6022205352783200,29.7389507293701170,128,130,102,86,66,15484,2149350345,2153061952,2156587849,2147873517,2147948315,2149640804,2151425261,2148519881,2384,8,12,24720
1344875604,5802,117.4800033569336000,19.6739997863769530,36.5840988159179700,261.0474853515625000,115.1183013916015600,19.6688308715820300,29.6201896667480470,124,129,102,87,66,15476,2150001654,2154521517,2158526125,2147899291,2148133348,2150095323,2152089216,2148583698,2865,7,13,8159
1344875685,5804,113.7600021362304700,19.7490997314453120,36.5909004211425800,264.9255065917969000,112.6884002685546900,19.7431297302246100,29.4284000396728500,116,128,100,87,66,15484,2149745280,2153347300,2155902564,2147879862,2148035657,2149581906,2151005001,2148508736,3152,7,13,16080
1344875788,5803,109.6999969482421900,19.8617992401123050,36.5951004028320300,267.9341125488281000,109.1992034912109400,19.8498497009277340,29.2613201141357420,105,132,102,88,65,15476,2152191881,2158965732,2163902582,2147982802,2148843940,2151688512,2154206582,2148788068,3034,7,12,30271
1344875891,5804,106.0100021362304700,19.9573001861572270,36.5994987487793000,269.4348144531250000,106.9617004394531200,19.9183101654052730,29.1724090576171880,101,133,104,88,65,15470,2151176950,2155856082,2158444059,2147930112,2148524251,2150486098,2151938066,2148613897,133,7,13,38718
1344876002,5803,101.8199996948242200,20.1252994537353500,36.6086997985839840,272.7298889160156000,100.3908004760742200,20.1194305419921880,28.9579601287841800,94,135,105,89,63,15453,2156464411,2166994550,2173282276,2148172406,2150474331,2155121682,2158424603,2149173019,652,7,13,49938
1344876081,5805,98.5000000000000000,20.2194004058837900,36.6133995056152340,274.3008117675781000,96.9414901733398400,20.2250709533691400,28.8525104522705080,92,143,106,91,62,15446,2157446189,2167967634,2173317869,2148194980,2150981869,2155956443,2159102665,2149232118,507,7,13,3383
1344876136,5803,96.3199996948242200,20.3017005920410160,36.6148986816406250,275.2572937011719000,94.5777969360351600,20.2974700927734380,28.7854003906250000,92,139,105,90,62,15438,2160287369,2172728237,2178410240,2148317796,2152062692,2158032384,2161368466,2149435136,369,7,12,53877
1344876191,5806,94.2500000000000000,20.3801002502441400,36.6192016601562500,275.8908081054687500,91.7511901855468800,20.3840904235839840,28.7254905700683600,86,142,104,90,62,15435,2162220544,2175629888,2181272045,2148412205,2152891520,2159411017,2162685376,2149560749,445,8,13,19400
1344876246,5806,92.1100006103515600,20.5139007568359380,36.6253013610839840,277.0480957031250000,88.0704269409179700,20.4969196319580080,28.6344108581542970,85,138,105,92,61,15426,2164608996,2178906605,2184239168,2148505782,2153976320,2161249709,2164479488,2149730651,664,7,12,22921
1344876325,5806,88.4899978637695300,20.6371994018554700,36.6366004943847660,278.3955993652344000,83.5971832275390600,20.6341094970703120,28.5267906188964840,84,136,108,91,62,15421,2170045184,2186787840,2192096987,2148764434,2156474843,2165458852,2168623835,2150114596,655,7,12,51841
1344876380,5802,85.2699966430664000,20.7803993225097660,36.6497001647949200,278.5729980468750000,79.4167175292968800,20.7623901367187500,28.4677906036376950,78,137,105,90,60,15426,2174866944,2193184365,2198220516,2149027922,2158924754,2169253860,2172122422,2150455424,417,7,12,59515
1344876435,5804,81.9700012207031200,20.9041004180908200,36.6459999084472660,279.1163024902344000,74.1189270019531200,20.9250507354736330,28.3811798095703120,78,137,106,91,60,15414,2179741485,2199118290,2203438610,2149318683,2161505453,2173010633,2175443748,2150773860,428,7,12,45780
1344876490,5805,78.8099975585937500,21.0790004730224600,36.6516990661621100,280.3039855957031000,68.9125976562500000,21.0850105285644530,28.2715206146240230,75,139,105,91,60,15413,2185476178,2206072466,2209687350,2149666249,2164615826,2177427702,2179354130,2151171364,400,7,12,45756
1344876545,5806,76.0599975585937500,21.2367992401123050,36.6701011657714840,280.9140014648437500,64.4067001342773400,21.2235393524169920,28.1928005218505860,74,142,106,92,61,15410,2194108745,2217218980,2220500763,2150234916,2168896923,2183626614,2184952283,2151742445,3585,8,12,13036
1344876600,5801,73.5500030517578100,21.3575000762939450,36.6769981384277340,281.0841979980469000,60.4889297485351560,21.3440608978271500,28.1381492614746100,70,139,108,92,57,15417,2194133677,2214750546,2216048886,2150217280,2169866550,2183926774,2184372114,2151689517,3300,8,13,702
1344876657,5805,71.3600006103515600,21.4169998168945300,36.6766014099121100,281.3678894042969000,58.3685493469238300,21.4093093872070300,28.1013298034667970,71,144,104,91,62,15411,2201858578,2224000466,2225101659,2150857508,2173370898,2188107885,2187457435,2152079954,3145,7,12,53716
1344876712,5804,69.3499984741211000,21.4652004241943360,36.6533012390136700,281.8823852539062500,57.3364906311035160,21.4410800933837900,28.0691699981689450,71,138,106,92,59,15412,2174175926,2182669147,2180314121,2148923401,2160785051,2167265600,2165724306,2149952704,2776,8,12,29804
1344876767,5803,67.3799972534179700,21.5286006927490230,36.6391983032226560,282.2821044921875000,54.9620780944824200,21.5141792297363280,28.0249290466308600,70,142,106,92,58,15404,2176559469,2185174555,2182431798,2149068699,2162307538,2169169517,2167233764,2150103707,2978,8,13,19911
1344876822,5805,65.7600021362304700,21.6485004425048830,36.6129989624023440,283.6369018554687500,51.1799316406250000,21.6306800842285160,27.9279594421386720,71,144,106,91,59,15393,2225394395,2251614518,2251406134,2152790720,2187821778,2207687561,2205197787,2153938468,2963,7,12,42959
1344876889,5804,64.4400024414062500,21.7411003112792970,36.6043014526367200,285.0309143066406000,48.0826606750488300,21.7261295318603500,27.8381309509277340,68,139,106,93,60,15399,2208585033,2226827300,2224678317,2151520082,2179566390,2193893019,2190661979,2152515401,3163,7,12,37676
1344877003,5801,61.6399993896484400,21.8631000518798830,36.5934982299804700,286.4599914550781000,44.6390190124511700,21.8323097229003900,27.7433490753173830,66,140,108,92,57,15383,2189614930,2198518354,2194015469,2149987017,2170631771,2178756397,2174775168,2150941760,1884,8,13,20141
1344877058,5806,59.3199996948242200,21.9817008972167970,36.6010017395019500,286.2792053222656000,41.0064506530761700,21.9443702697753900,27.7057399749755860,65,141,108,93,60,15381,2193787474,2202564397,2197509229,2150357924,2173753764,2182165321,2177357851,2151245878,1868,8,12,56392
1344877113,5804,57.0699996948242200,22.0727005004882800,36.5993003845214840,286.1629028320312500,37.1839714050293000,22.0623607635498050,27.6634902954101560,66,141,107,92,59,15381,2205802742,2216091209,2210434404,2151514816,2181477970,2191648082,2185389467,2152159725,2170,7,12,17357
1344877168,5804,55.0400009155273440,22.1117000579834000,36.5976982116699200,286.3062133789062500,35.7378692626953100,22.1070098876953120,27.6407203674316400,65,138,108,92,61,15387,2206568713,2215788836,2209938176,2151845586,2182741184,2192309010,2185543826,2152254061,2169,7,13,35608
1344877235,5800,52.9300003051757800,22.2656993865966800,36.5965003967285160,285.7333068847656000,30.6559505462646500,22.2640209197998050,27.6000099182128900,63,143,108,92,60,15383,2182288996,2186374921,2181677696,2149978806,2168785179,2173647122,2168846518,2150483885,2140,7,13,17143
1344877314,5804,50.7000007629394500,22.5223007202148440,36.5994987487793000,284.7117004394531000,24.1164207458496100,22.4662609100341800,27.5583496093750000,62,142,107,92,58,15381,2169645476,2171576320,2168142518,2149150226,2161486948,2164190034,2160817490,2149634441,1785,8,12,59700
1344877369,5803,48.9000015258789060,22.7712993621826170,36.5988998413085940,283.8887023925781000,18.7376899719238280,22.6327590942382800,27.5236701965332030,60,137,107,92,60,15392,2169252781,2170742473,2167364818,2149209627,2161717504,2164080329,2160559625,2149631780,1877,8,12,33450
1344877436,5803,47.5200004577636700,23.0109004974365230,36.5822982788085940,282.0108032226562500,7.9477701187133790,22.9672508239746100,27.4627208709716800,62,138,107,91,57,15393,2170715483,2172067437,2168533302,2149402532,2163146669,2165419428,2161471405,2149746569,2530,7,13,22605
1344877694,5802,45.4099998474121100,23.5704002380371100,36.5629005432128900,280.1350097656250000,-8.2877578735351560,23.4717693328857420,27.3366603851318360,59,138,108,93,58,15394,2189698724,2191651986,2186014043,2151240201,2178402770,2181805979,2173769142,2151203501,2050,8,13,64348
1344877797,5803,43.5999984741210940,23.7189006805419920,36.5564002990722660,278.6113891601562500,-14.3208999633789060,23.6596508026123050,27.3210391998291000,58,137,106,89,57,15400,2199970752,2202206601,2195555264,2152460681,2187112128,2191055725,2180702482,2152067044,1926,8,12,15544
1344877983,5804,41.3600006103515600,23.9647998809814450,36.5298995971679700,275.3009948730469000,-23.7533206939697270,23.9538402557373050,27.3324108123779300,57,136,107,91,60,15404,2224013577,2227430893,2219431954,2155964352,2208464301,2213507556,2197824914,2154255552,2931,8,12,727
1344878134,5802,39.8499984741210940,24.2038993835449220,36.5060997009277340,273.4509887695312500,-30.5840606689453120,24.1672401428222660,27.3204097747802730,58,133,105,91,58,15408,2230243995,2232089554,2222162660,2156222299,2217045540,2220625389,2201494336,2154642121,3585,8,12,58986
1344878308,5807,37.5400009155273440,24.6271991729736330,36.4154014587402340,269.0085144042969000,-45.1259384155273440,24.6225700378417970,27.3163108825683600,56,137,108,89,60,15420,2399422921,2420490459,2411288676,2187662729,2369507638,2389041773,2335628598,2172664612,68,7,12,57872
1344878637,5806,35.6199989318847660,25.5147991180419920,36.3138999938964840,262.7878112792969000,-68.4848937988281200,25.3570804595947270,27.2791004180908200,55,134,104,91,57,15421,2256653549,2259569636,2249919323,2162143872,2253094628,2255918445,2226500041,2158044406,189,8,12,53659
1344879529,5804,33.6699981689453100,27.4323997497558600,36.5397987365722660,246.2353973388672000,-132.7984008789062500,27.4014892578125000,27.1794109344482420,56,135,103,91,57,15434,2170428306,2170472886,2167993508,2150669696,2171696073,2171339785,2164204626,2150240064,1990,8,12,61468
1344879680,5805,31.4400005340576170,27.4330997467041000,36.5424003601074200,245.7006072998047000,-133.5054931640625000,27.4241695404052730,27.1932506561279300,58,133,102,92,57,15441,2171410980,2171488429,2169127762,2151167817,2173024713,2172692379,2165249133,2150452918,2859,8,11,9386